STARLINK-35643

Last updated on Tue Dec 16 2025 00:02:05 GMT+0000 (Coordinated Universal Time)

1 66456U 25262A 25349.24085599 .00041579 00000+0 99531-3 0 9994 2 66456 43.0022 57.2022 0001680 258.0939 101.9729 15.40756645 5949
UTC large
Height (km)
Speed (km/s)
/
Latitude / Longitude
Inclination (degrees)
Orbital Period (minutes)
Azimuth
Elevation
Range (km)
Doppler Factor

Next 0 passes for location: London (51.5072 / 0.1276)

Sorry there are no passes over London.